{"data":{"norad_id":67472,"intl_designator":"2026-008AD","name":"STARLINK-36269","alt_names":[],"object_type":"PAYLOAD","status":"ACTIVE","operator":null,"country":"US","launch_date":"2026-01-14","launch_site_code":"AFETR","launch_vehicle":null,"mission":null,"orbit_class":"UNKNOWN","rcs_meters":null,"size_class":null,"mass_kg":null,"dimensions":null,"purposes":["comms"],"wikipedia_slug":null,"has_3d_model":false,"image_url":null,"decayed_at":null,"tle_current":{"epoch":"2026-09-19T12:29:06.777312Z","epoch_age_seconds":156903,"freshness":"FRESH","line1":"1 67472U 26008AD  26262.52021733  .00008821  00000+0  32955-3 0  9998","line2":"2 67472  43.0023 190.7687 0001716 268.2240  91.8415 15.27591790 39216","mean_motion":15.2759179,"eccentricity":0.0001716,"inclination_deg":43.0023,"raan_deg":190.7687,"arg_perigee_deg":268.224,"mean_anomaly_deg":91.8415,"bstar":0.00032955,"rev_number":3921,"period_min":94.266021160012,"perigee_km":481.83641928925,"apogee_km":484.19116624132,"semimajor_km":6861.1507927653,"source":"CELESTRAK","updated_at":"2026-09-20T09:00:43.554894Z"}}}